Location: Krasnoyarskiy Pitomnik
(51.1333°N, 71.6167°E)
Time: 09:05:38
(UTC+00:00)

Envisat - Pass Details

Date: 05 March 2024
Orbit: 762 x 764 km, 98.3° (Epoch: 21 April)

Event Time Altitude Azimuth Distance (km) Brightness Sun altitude
Rises 22:50:10 0° 14° (NNE) 3,244 6.8 -27.8°
Reaches altitude 10° 22:52:29 10° 15° (NNE) 2,313 6.0 -27.4°
Maximum altitude 22:57:36 85° 105° (ESE) 774 2.9 -26.7°
Enters shadow 22:57:43 84° 143° (SE) 776 2.9 -26.7°
